[[{"header":{"parameterUnit":"m.s-1","parameterCategory":1,"la1":30.2991,"la2":30.254,"lo1":-89.0895,"lo2":-89.0444,"dy":0.0017,"dx":0.0017,"nx":28,"ny":28,"refTime":"2023-08-20T09:00:00:Z","depth":0,"parameterNumber":2,"parameterNumberName":"U-component_of_WINDS"},"data":[0,0,0,0,0,0,0,0,0,0,0,0,0,0,0,0,0,0,0,0,0,0,0,0,0,0,0,0,0,0,0,0,0,0,0,0,0,0,0,0,0,0,0,0,0,0,0,0,0,0,0,0,0,0,0,0,0,0,-5.3662,-5.3664,0,-5.3822,-5.3824,-5.3826,-5.3768,-5.3765,-5.3761,-5.3758,-5.3922,-5.3929,-5.3937,0,0,0,0,0,0,0,0,0,0,0,0,0,-5.3309,-5.3316,-5.3662,-5.3664,-5.3666,-5.3822,-5.3824,-5.3826,-5.3769,-5.3765,-5.376,-5.3756,-5.3919,-5.3928,-5.3938,0,0,0,0,0,0,0,0,0,0,0,0,0,-5.3465,-5.3318,-5.3662,-5.3656,-5.3658,-5.3821,-5.3824,-5.3827,-5.377,-5.3764,-5.3759,-5.3754,-5.3916,-5.3928,-5.3939,-5.4118,0,0,-5.3974,-5.3979,0,0,0,0,0,0,0,0,-5.3456,-5.3478,-5.3655,-5.3657,-5.3659,-5.377,-5.376,-5.3924,-5.3771,-5.3727,-5.3758,-5.3751,-5.3876,-5.389,-5.3932,-5.4126,-5.4133,-5.3975,-5.3982,-5.3987,-5.3991,0,0,0,0,0,0,0,-5.3446,-5.3471,-5.3725,-5.3658,-5.366,-5.3646,-5.3663,-5.3791,-5.383,-5.3731,-5.3727,-5.3747,-5.3876,-5.3921,-5.3935,-5.4135,-5.3975,-5.3985,-5.3992,-5.3997,-5.4484,-5.449,0,0,0,0,0,0,-5.3434,-5.3462,-5.372,-5.373,-5.3542,-5.3657,-5.3675,-5.374,-5.3828,-5.3836,-5.3751,-5.3743,-5.3904,-5.3922,-5.3941,-5.4156,-5.3987,-5.3998,-5.4005,-5.4478,-5.4485,-5.4492,0,0,0,0,0,0,-5.3426,-5.3457,-5.3714,-5.3595,-5.3627,-5.3669,-5.3742,-5.3746,-5.3791,-5.3843,-5.385,-5.379,-5.39,-5.3925,-5.4074,-5.4161,-5.4003,-5.4014,-5.4471,-5.448,-5.4488,-5.4587,0,0,0,0,0,0,-5.3417,-5.3455,-5.3523,-5.3597,-5.3634,-5.3844,-5.3747,-5.3752,-5.3811,-5.3802,-5.3882,-5.389,-5.3898,-5.4057,-5.4086,-5.4174,-5.4023,-5.4463,-5.4475,-5.4486,-5.4576,-5.4598,-5.4617,0,0,0,0,0,-5.3404,-5.3544,-5.3527,-5.3558,-5.3719,-5.3849,-5.387,-5.3876,-5.3818,-5.3887,-5.3921,-5.3887,-5.4147,-5.4073,-5.4105,-5.4197,-5.4458,-5.4472,-5.4485,-5.4567,-5.4594,-5.4616,0,0,0,0,0,0,-5.3479,-5.3554,-5.3535,-5.3703,-5.3771,-5.3839,-5.3926,-5.3905,-5.399,-5.3978,-5.3983,-5.4001,-5.4155,-5.4192,-5.4108,-5.4375,-5.4294,-5.4314,-5.4345,-5.4371,-5.4392,-5.4379,-5.4032,0,0,0,0,0,-5.3515,-5.3614,-5.3675,-5.3817,-5.3852,-5.3884,-5.3941,-5.394,-5.4009,-5.4037,-5.4082,-5.4152,-5.4249,-5.4312,-5.4405,-5.4582,-5.4598,-5.4662,-5.4682,-5.4698,-5.4715,-5.4812,-5.484,-5.4536,-5.4536,-5.4536,0,0,-5.359,-5.3644,-5.3706,-5.3834,-5.3885,-5.3988,-5.3908,-5.402,-5.4096,-5.4055,-5.4198,-5.4234,-5.4312,-5.4476,-5.455,-5.4511,-5.4804,-5.4716,-5.4728,-5.4737,-5.4829,-5.4857,-5.4883,-5.4545,-5.4543,-5.4542,0,0,-5.378,-5.3831,-5.3955,-5.4009,-5.4088,-5.4109,-5.4139,-5.4212,-5.4234,-5.4378,-5.4349,-5.4441,-5.4608,-5.4665,-5.4715,-5.4929,-5.4901,-5.4959,-5.5065,-5.5159,-5.5183,-5.5204,-5.5279,-5.5306,-5.4976,-5.4977,-5.4977,0,-5.3863,-5.4016,-5.4021,-5.4136,-5.4193,-5.4161,-5.4287,-5.434,-5.4446,-5.4486,-5.4441,-5.465,-5.47,-5.4877,-5.4929,-5.4972,-5.5006,-5.4948,-5.5179,-5.52,-5.522,-5.5292,-5.5321,-5.4983,-5.4982,-5.4981,-5.4981,0,-5.4114,-5.4222,-5.4313,-5.4416,-5.4483,-5.4603,-5.4627,-5.4695,-5.469,-5.4715,-5.4863,-5.4923,-5.5026,-5.5069,-5.5064,-5.5246,-5.5219,-5.5177,-5.5094,-5.5256,-5.5323,-5.5351,-5.4992,-5.499,-5.4988,-5.4986,0,0,-5.4353,-5.4458,-5.4491,-5.4538,-5.4625,-5.4708,-5.4827,-5.4928,-5.4987,-5.5062,-5.5161,-5.5305,-5.5267,-5.5324,-5.5326,-5.5409,-5.5574,-5.5357,-5.5359,-5.5394,-5.5777,-5.5807,-5.5839,-5.5557,-5.5563,-5.5567,-5.577,0,-5.4548,-5.4756,-5.4765,-5.4955,-5.5054,-5.5026,-5.513,-5.5195,-5.5223,-5.5311,-5.5342,-5.5443,-5.5385,-5.542,-5.5501,-5.5537,-5.565,-5.5522,-5.565,-5.5654,-5.5629,-5.5874,-5.5906,-5.6095,-5.5797,-5.5801,-5.5804,0,-5.4803,-5.4885,-5.5085,-5.5158,-5.52,-5.5293,-5.5387,-5.5472,-5.5546,-5.556,-5.5626,-5.5616,-5.5739,-5.5655,-5.5824,-5.5736,-5.579,-5.5815,-5.5823,-5.5833,-5.5737,-5.589,-5.6155,-5.6183,-5.5846,-5.5843,-5.584,0,-5.4955,-5.5117,-5.5257,-5.5298,-5.5387,-5.5453,-5.5493,-5.5561,-5.5622,-5.5705,-5.5745,-5.5842,-5.5894,-5.597,-5.5987,-5.5924,-5.6156,-5.6073,-5.6171,-5.6171,-5.6219,-5.6215,-5.6495,-5.6257,-5.6256,-5.6256,-5.6255,0,-5.517,-5.5293,-5.5326,-5.5412,-5.555,-5.556,-5.5696,-5.5732,-5.5793,-5.5886,-5.5869,-5.5957,-5.5975,-5.6067,-5.6082,-5.6219,-5.6244,-5.6259,-5.6261,-5.6259,-5.6257,-5.6293,-5.6279,-5.6263,-5.6262,-5.626,-5.6259,0,-5.5362,-5.539,-5.554,-5.5613,-5.5634,-5.5732,-5.5794,-5.5877,-5.5904,-5.6022,-5.605,-5.6092,-5.62,-5.6225,-5.6353,-5.6363,-5.6526,-5.6516,-5.6501,-5.6499,-5.6596,-5.6586,-5.6907,-5.6949,-5.6684,-5.6687,-5.6689,0,-5.5497,-5.5591,-5.5674,-5.5735,-5.5778,-5.5877,-5.5939,-5.5954,-5.6019,-5.6111,-5.6183,-5.6289,-5.6373,-5.6547,-5.6589,-5.6687,-5.6679,-5.6785,-5.6693,-5.6689,-5.6679,-5.6672,-5.6682,-5.6801,-5.6804,-5.6806,-5.6808,0,-5.5733,-5.5743,-5.5832,-5.5928,-5.6003,-5.6079,-5.6151,-5.6202,-5.6227,-5.6302,-5.6411,-5.6477,-5.6608,-5.6713,-5.6813,-5.6855,-5.6836,-5.6837,-5.6865,-5.6863,-5.685,-5.6857,-5.6546,-5.6829,-5.6827,-5.6825,-5.6824,-5.6823,-5.59,-5.5982,-5.6054,-5.6155,-5.6211,-5.6279,-5.6361,-5.6398,-5.649,-5.6597,-5.6601,-5.672,-5.6792,-5.6923,-5.6972,-5.7066,-5.7033,-5.7074,-5.7084,-5.7093,-5.7101,-5.6837,-5.7084,-5.7084,-5.7083,-5.7083,-5.7082,0,-5.6134,-5.6179,-5.6272,-5.6374,-5.6454,-5.643,-5.651,-5.6578,-5.6683,-5.6752,-5.6836,-5.6963,-5.7065,-5.7116,-5.7218,-5.7284,-5.7278,-5.731,-5.7304,-5.7314,-5.7125,-5.709,-5.7313,-5.7313,-5.7313,-5.7313,-5.7313,-5.7312,-5.6265,-5.6403,-5.6421,-5.6587,-5.6631,-5.6747,-5.6795,-5.6858,-5.6913,-5.7055,-5.714,-5.7173,-5.7235,-5.7341,-5.7434,-5.7447,-5.7485,-5.7521,-5.7529,-5.7351,-5.7327,-5.7305,-5.7272,-5.7529,-5.753,-5.771,-5.7712,-5.7713]},{"header":{"parameterUnit":"m.s-1","parameterCategory":1,"la1":30.2991,"la2":30.254,"lo1":-89.0895,"lo2":-89.0444,"dy":0.0017,"dx":0.0017,"nx":28,"ny":28,"refTime":"2023-08-20T09:00:00:Z","depth":0,"parameterNumber":3,"parameterNumberName":"V-component_of_WINDS"},"data":[0,0,0,0,0,0,0,0,0,0,0,0,0,0,0,0,0,0,0,0,0,0,0,0,0,0,0,0,0,0,0,0,0,0,0,0,0,0,0,0,0,0,0,0,0,0,0,0,0,0,0,0,0,0,0,0,0,0,2.6256,2.6257,0,2.6319,2.632,2.6321,2.6343,2.6343,2.6343,2.6343,2.6402,2.6404,2.6405,0,0,0,0,0,0,0,0,0,0,0,0,0,2.615,2.6152,2.6256,2.6257,2.6258,2.6319,2.632,2.6321,2.6343,2.6343,2.6343,2.6342,2.6401,2.6403,2.6406,0,0,0,0,0,0,0,0,0,0,0,0,0,2.6203,2.6152,2.6256,2.6276,2.6279,2.6319,2.632,2.6321,2.6343,2.6343,2.6343,2.6342,2.6401,2.6403,2.6406,2.6429,0,0,2.6414,2.6415,0,0,0,0,0,0,0,0,2.62,2.6207,2.6273,2.6275,2.6278,2.6323,2.6304,2.6357,2.6343,2.6319,2.6343,2.6342,2.6376,2.638,2.6393,2.6432,2.6434,2.6414,2.6416,2.6417,2.6418,0,0,0,0,0,0,0,2.6196,2.6204,2.6281,2.6273,2.6277,2.6281,2.6288,2.6315,2.6348,2.6321,2.6323,2.633,2.6377,2.639,2.6394,2.6435,2.6414,2.6417,2.6418,2.6419,2.6496,2.6496,0,0,0,0,0,0,2.619,2.6201,2.6279,2.6283,2.6237,2.6283,2.6291,2.6309,2.6348,2.6354,2.633,2.6331,2.6386,2.6391,2.6396,2.6426,2.6417,2.642,2.6421,2.6495,2.6496,2.6496,0,0,0,0,0,0,2.6187,2.6196,2.6276,2.6242,2.6253,2.6285,2.6305,2.631,2.6323,2.6355,2.6361,2.6338,2.6386,2.6393,2.6421,2.6428,2.6421,2.6423,2.6495,2.6496,2.6496,2.6485,0,0,0,0,0,0,2.6184,2.6195,2.6206,2.6243,2.6255,2.6301,2.6306,2.6312,2.6329,2.633,2.6364,2.6369,2.6386,2.6417,2.6424,2.6432,2.6425,2.6494,2.6495,2.6496,2.6485,2.6485,2.6486,0,0,0,0,0,2.618,2.6199,2.6206,2.6215,2.6268,2.6302,2.6308,2.6329,2.6329,2.6339,2.6359,2.6368,2.6427,2.642,2.6427,2.6437,2.6494,2.6495,2.6496,2.6485,2.6485,2.6486,0,0,0,0,0,0,2.6159,2.6204,2.6212,2.6244,2.6269,2.6305,2.6318,2.6329,2.6353,2.6353,2.6377,2.6384,2.641,2.6426,2.6418,2.6461,2.6461,2.6463,2.645,2.645,2.6451,2.6446,2.6428,0,0,0,0,0,2.6159,2.6184,2.6221,2.6244,2.6257,2.6285,2.6301,2.6315,2.6341,2.6351,2.6374,2.6398,2.6422,2.6437,2.6461,2.6488,2.6495,2.6498,2.6498,2.6498,2.65,2.6515,2.6517,2.65,2.65,2.65,0,0,2.6157,2.6184,2.6198,2.6241,2.6262,2.6286,2.6294,2.6319,2.6337,2.6355,2.6383,2.6401,2.6429,2.6457,2.647,2.6471,2.6506,2.6499,2.6499,2.6501,2.6516,2.6518,2.6519,2.65,2.65,2.65,0,0,2.6166,2.619,2.6213,2.6234,2.6267,2.6286,2.6292,2.6327,2.634,2.6369,2.6383,2.6404,2.6445,2.6465,2.648,2.6498,2.6506,2.6504,2.6506,2.6521,2.6522,2.6523,2.6529,2.6531,2.6506,2.6506,2.6506,0,2.6159,2.6198,2.6222,2.6247,2.6265,2.6285,2.6307,2.6326,2.6364,2.6376,2.6377,2.6429,2.6449,2.6482,2.6487,2.6498,2.6504,2.65,2.652,2.6522,2.6523,2.6529,2.6531,2.6506,2.6506,2.6506,2.6506,0,2.6188,2.6214,2.6228,2.6267,2.6287,2.631,2.6337,2.6353,2.6366,2.6384,2.6414,2.6439,2.6469,2.6478,2.6489,2.6512,2.6512,2.6516,2.6516,2.6524,2.653,2.6533,2.6505,2.6505,2.6505,2.6506,0,0,2.6185,2.6238,2.6242,2.6261,2.6299,2.6319,2.6343,2.6374,2.6387,2.6413,2.6433,2.6468,2.6472,2.649,2.6504,2.6517,2.6529,2.652,2.6521,2.652,2.6556,2.6552,2.6554,2.6536,2.6536,2.6537,2.6553,0,2.6199,2.6245,2.6267,2.6303,2.6327,2.6346,2.6367,2.6392,2.641,2.6432,2.6451,2.6476,2.648,2.6491,2.6505,2.6525,2.6536,2.6524,2.6553,2.6554,2.6545,2.6557,2.6553,2.6568,2.6556,2.6556,2.6556,0,2.6221,2.6249,2.6287,2.6323,2.6334,2.6353,2.6383,2.6405,2.6433,2.6445,2.6465,2.6479,2.6504,2.6503,2.6537,2.6528,2.6541,2.6553,2.6554,2.6557,2.6555,2.656,2.6573,2.6575,2.656,2.656,2.656,0,2.6215,2.6262,2.6291,2.6306,2.6349,2.6361,2.6379,2.6407,2.6425,2.645,2.6462,2.6489,2.6504,2.6525,2.6546,2.6543,2.6577,2.6578,2.6587,2.6587,2.6593,2.6592,2.6607,2.6602,2.6602,2.6602,2.6602,0,2.6228,2.6251,2.6289,2.6307,2.6332,2.6358,2.6382,2.6401,2.6426,2.6447,2.6465,2.6484,2.651,2.6532,2.6548,2.6574,2.658,2.659,2.6594,2.6588,2.6587,2.6597,2.6596,2.6603,2.6602,2.6602,2.6602,0,2.6225,2.6252,2.6285,2.6324,2.6334,2.6351,2.6383,2.64,2.642,2.6446,2.6453,2.6483,2.651,2.6533,2.6568,2.6579,2.6605,2.661,2.6596,2.6598,2.6605,2.6604,2.6627,2.6631,2.6623,2.6623,2.6623,0,2.6232,2.625,2.6291,2.6307,2.6326,2.6351,2.637,2.6395,2.6413,2.6447,2.646,2.6489,2.6513,2.6554,2.6578,2.6605,2.661,2.6617,2.6614,2.6608,2.661,2.6609,2.661,2.6616,2.6616,2.6616,2.6616,0,2.6241,2.6253,2.628,2.6311,2.6333,2.6358,2.6384,2.6396,2.6426,2.6445,2.6474,2.6492,2.6529,2.6557,2.6586,2.6603,2.6614,2.6617,2.662,2.6614,2.6606,2.661,2.6595,2.6616,2.6616,2.6616,2.6616,2.6616,2.6243,2.626,2.6292,2.6321,2.6343,2.6367,2.6386,2.6408,2.6433,2.6466,2.6479,2.6508,2.6536,2.6577,2.6594,2.6616,2.6618,2.6623,2.6624,2.6625,2.6624,2.6603,2.6621,2.6621,2.6622,2.6622,2.6622,0,2.6252,2.6274,2.63,2.6337,2.636,2.637,2.6399,2.6417,2.6443,2.6469,2.6493,2.6526,2.6553,2.6579,2.6607,2.662,2.6626,2.6626,2.6625,2.6629,2.6621,2.6615,2.6621,2.6621,2.6621,2.6621,2.6621,2.6621,2.626,2.6289,2.6306,2.6347,2.6368,2.6398,2.6414,2.6435,2.6456,2.6493,2.6516,2.6534,2.656,2.659,2.6615,2.6622,2.6631,2.6631,2.6639,2.663,2.663,2.6629,2.6624,2.6632,2.6632,2.6645,2.6646,2.6646]}]]